Time,TemperatureF,DewpointF,PressureIn,WindDirection,WindDirectionDegrees,WindSpeedMPH,WindSpeedGustMPH,Humidity,HourlyPrecipIn,Conditions,Clouds,dailyrainin,SoftwareType,DateUTC
2013-05-16 00:00:00,72.7,58.9,29.86,ESE,110,3.0,10.0,62,0.00,,,0.00,Wunderground PWS Mod,2013-05-16 04:00:00,
2013-05-16 00:05:00,72.7,58.9,29.86,ESE,110,3.0,10.0,62,0.00,,,0.00,Wunderground PWS Mod,2013-05-16 04:05:00,
2013-05-16 00:10:00,72.7,58.9,29.86,ESE,110,3.0,10.0,62,0.00,,,0.00,Wunderground PWS Mod,2013-05-16 04:10:00,
2013-05-16 00:15:00,72.7,58.9,29.86,ESE,110,3.0,10.0,62,0.00,,,0.00,Wunderground PWS Mod,2013-05-16 04:15:00,
2013-05-16 00:20:00,72.7,58.9,29.86,ESE,110,3.0,10.0,62,0.00,,,0.00,Wunderground PWS Mod,2013-05-16 04:20:00,
2013-05-16 00:25:00,72.7,58.9,29.86,ESE,110,3.0,10.0,62,0.00,,,0.00,Wunderground PWS Mod,2013-05-16 04:25:00,
2013-05-16 00:30:00,72.7,58.9,29.86,ESE,110,3.0,10.0,62,0.00,,,0.00,Wunderground PWS Mod,2013-05-16 04:30:00,
2013-05-16 00:35:00,72.7,58.9,29.86,ESE,110,3.0,10.0,62,0.00,,,0.00,Wunderground PWS Mod,2013-05-16 04:35:00,
2013-05-16 00:40:00,72.7,58.9,29.86,ESE,110,3.0,10.0,62,0.00,,,0.00,Wunderground PWS Mod,2013-05-16 04:40:00,
2013-05-16 00:45:00,71.5,58.2,29.86,ESE,110,3.0,7.0,63,0.00,,,0.00,Wunderground PWS Mod,2013-05-16 04:45:00,
2013-05-16 00:50:00,71.5,58.2,29.86,ESE,110,3.0,7.0,63,0.00,,,0.00,Wunderground PWS Mod,2013-05-16 04:50:00,
2013-05-16 00:55:00,71.5,58.2,29.86,ESE,110,3.0,7.0,63,0.00,,,0.00,Wunderground PWS Mod,2013-05-16 04:55:00,
2013-05-16 01:00:00,71.5,58.2,29.86,ESE,110,3.0,7.0,63,0.00,,,0.00,Wunderground PWS Mod,2013-05-16 05:00:00,
2013-05-16 01:05:00,71.5,58.2,29.86,ESE,110,3.0,7.0,63,0.00,,,0.00,Wunderground PWS Mod,2013-05-16 05:05:00,
2013-05-16 01:10:00,71.5,58.2,29.86,ESE,110,3.0,7.0,63,0.00,,,0.00,Wunderground PWS Mod,2013-05-16 05:10:00,
2013-05-16 01:15:00,70.8,58.0,29.85,ESE,110,2.0,10.0,64,0.00,,,0.00,Wunderground PWS Mod,2013-05-16 05:15:00,
2013-05-16 01:20:00,70.8,58.0,29.85,ESE,110,2.0,10.0,64,0.00,,,0.00,Wunderground PWS Mod,2013-05-16 05:20:00,
2013-05-16 01:25:00,70.8,58.0,29.85,ESE,110,2.0,10.0,64,0.00,,,0.00,Wunderground PWS Mod,2013-05-16 05:25:00,
2013-05-16 01:30:00,70.8,58.0,29.85,ESE,110,2.0,10.0,64,0.00,,,0.00,Wunderground PWS Mod,2013-05-16 05:30:00,
2013-05-16 01:35:00,70.8,58.0,29.85,ESE,110,2.0,10.0,64,0.00,,,0.00,Wunderground PWS Mod,2013-05-16 05:35:00,
2013-05-16 01:40:00,70.8,58.0,29.85,ESE,110,2.0,10.0,64,0.00,,,0.00,Wunderground PWS Mod,2013-05-16 05:40:00,
2013-05-16 01:45:00,69.6,57.7,29.85,ESE,110,2.0,9.0,66,0.00,,,0.00,Wunderground PWS Mod,2013-05-16 05:45:00,
2013-05-16 01:50:00,69.6,57.7,29.85,ESE,110,2.0,9.0,66,0.00,,,0.00,Wunderground PWS Mod,2013-05-16 05:50:00,
2013-05-16 01:55:00,69.6,57.7,29.85,ESE,110,2.0,9.0,66,0.00,,,0.00,Wunderground PWS Mod,2013-05-16 05:55:00,
2013-05-16 02:00:00,69.6,57.7,29.85,ESE,110,2.0,9.0,66,0.00,,,0.00,Wunderground PWS Mod,2013-05-16 06:00:00,
2013-05-16 02:05:00,69.6,57.7,29.85,ESE,110,2.0,9.0,66,0.00,,,0.00,Wunderground PWS Mod,2013-05-16 06:05:00,
2013-05-16 02:10:00,69.6,57.7,29.85,ESE,110,2.0,9.0,66,0.00,,,0.00,Wunderground PWS Mod,2013-05-16 06:10:00,
2013-05-16 02:15:00,67.8,57.3,29.85,ESE,120,1.0,6.0,69,0.00,,,0.00,Wunderground PWS Mod,2013-05-16 06:15:00,
2013-05-16 02:20:00,67.8,57.3,29.85,ESE,120,1.0,6.0,69,0.00,,,0.00,Wunderground PWS Mod,2013-05-16 06:20:00,
2013-05-16 02:25:00,67.8,57.3,29.85,ESE,120,1.0,6.0,69,0.00,,,0.00,Wunderground PWS Mod,2013-05-16 06:25:00,
2013-05-16 02:30:00,67.8,57.3,29.85,ESE,120,1.0,6.0,69,0.00,,,0.00,Wunderground PWS Mod,2013-05-16 06:30:00,
2013-05-16 02:35:00,67.8,57.3,29.85,ESE,120,1.0,6.0,69,0.00,,,0.00,Wunderground PWS Mod,2013-05-16 06:35:00,
2013-05-16 02:40:00,67.8,57.3,29.85,ESE,120,1.0,6.0,69,0.00,,,0.00,Wunderground PWS Mod,2013-05-16 06:40:00,
2013-05-16 02:45:00,67.1,57.0,29.85,ESE,120,1.0,4.0,70,0.00,,,0.00,Wunderground PWS Mod,2013-05-16 06:45:00,
2013-05-16 02:50:00,67.1,57.0,29.85,ESE,120,1.0,4.0,70,0.00,,,0.00,Wunderground PWS Mod,2013-05-16 06:50:00,
2013-05-16 02:55:00,67.1,57.0,29.85,ESE,120,1.0,4.0,70,0.00,,,0.00,Wunderground PWS Mod,2013-05-16 06:55:00,
2013-05-16 03:00:00,67.1,57.0,29.85,ESE,120,1.0,4.0,70,0.00,,,0.00,Wunderground PWS Mod,2013-05-16 07:00:00,
2013-05-16 03:05:00,67.1,57.0,29.85,ESE,120,1.0,4.0,70,0.00,,,0.00,Wunderground PWS Mod,2013-05-16 07:05:00,
2013-05-16 03:10:00,67.1,57.0,29.85,ESE,120,1.0,4.0,70,0.00,,,0.00,Wunderground PWS Mod,2013-05-16 07:10:00,
2013-05-16 03:15:00,65.8,56.5,29.85,ESE,120,0.0,4.0,72,0.00,,,0.00,Wunderground PWS Mod,2013-05-16 07:15:00,
2013-05-16 03:20:00,65.8,56.5,29.85,ESE,120,0.0,4.0,72,0.00,,,0.00,Wunderground PWS Mod,2013-05-16 07:20:00,
2013-05-16 03:25:00,65.8,56.5,29.85,ESE,120,0.0,4.0,72,0.00,,,0.00,Wunderground PWS Mod,2013-05-16 07:25:00,
2013-05-16 03:30:00,65.8,56.5,29.85,ESE,120,0.0,4.0,72,0.00,,,0.00,Wunderground PWS Mod,2013-05-16 07:30:00,
2013-05-16 03:35:00,65.8,56.5,29.85,ESE,120,0.0,4.0,72,0.00,,,0.00,Wunderground PWS Mod,2013-05-16 07:35:00,
2013-05-16 03:40:00,65.8,56.5,29.85,ESE,120,0.0,4.0,72,0.00,,,0.00,Wunderground PWS Mod,2013-05-16 07:40:00,
2013-05-16 03:45:00,63.5,55.8,29.86,N/A,-327680,0.0,0.0,76,0.00,,,0.00,Wunderground PWS Mod,2013-05-16 07:45:00,
2013-05-16 03:50:00,63.5,55.8,29.86,N/A,-327680,0.0,0.0,76,0.00,,,0.00,Wunderground PWS Mod,2013-05-16 07:50:00,
2013-05-16 03:55:00,63.5,55.8,29.86,N/A,-327680,0.0,0.0,76,0.00,,,0.00,Wunderground PWS Mod,2013-05-16 07:55:00,
2013-05-16 04:00:00,63.5,55.8,29.86,N/A,-327680,0.0,0.0,76,0.00,,,0.00,Wunderground PWS Mod,2013-05-16 08:00:00,
2013-05-16 04:05:00,63.5,55.8,29.86,N/A,-327680,0.0,0.0,76,0.00,,,0.00,Wunderground PWS Mod,2013-05-16 08:05:00,
2013-05-16 04:10:00,63.5,55.8,29.86,N/A,-327680,0.0,0.0,76,0.00,,,0.00,Wunderground PWS Mod,2013-05-16 08:10:00,
2013-05-16 04:15:00,61.5,55.3,29.87,N/A,-327680,0.0,0.0,80,0.00,,,0.00,Wunderground PWS Mod,2013-05-16 08:15:00,
2013-05-16 04:20:00,61.5,55.3,29.87,N/A,-327680,0.0,0.0,80,0.00,,,0.00,Wunderground PWS Mod,2013-05-16 08:20:00,
2013-05-16 04:25:00,61.5,55.3,29.87,N/A,-327680,0.0,0.0,80,0.00,,,0.00,Wunderground PWS Mod,2013-05-16 08:25:00,
2013-05-16 04:30:00,61.5,55.3,29.87,N/A,-327680,0.0,0.0,80,0.00,,,0.00,Wunderground PWS Mod,2013-05-16 08:30:00,
2013-05-16 04:35:00,61.5,55.3,29.87,N/A,-327680,0.0,0.0,80,0.00,,,0.00,Wunderground PWS Mod,2013-05-16 08:35:00,
2013-05-16 04:40:00,61.5,55.3,29.87,N/A,-327680,0.0,0.0,80,0.00,,,0.00,Wunderground PWS Mod,2013-05-16 08:40:00,
2013-05-16 04:45:00,60.2,56.3,29.87,N/A,-327680,0.0,0.0,87,0.00,,,0.00,Wunderground PWS Mod,2013-05-16 08:45:00,
2013-05-16 04:50:00,60.2,56.3,29.87,N/A,-327680,0.0,0.0,87,0.00,,,0.00,Wunderground PWS Mod,2013-05-16 08:50:00,
2013-05-16 04:55:00,60.2,56.3,29.87,N/A,-327680,0.0,0.0,87,0.00,,,0.00,Wunderground PWS Mod,2013-05-16 08:55:00,
2013-05-16 05:00:00,60.2,56.3,29.87,N/A,-327680,0.0,0.0,87,0.00,,,0.00,Wunderground PWS Mod,2013-05-16 09:00:00,
2013-05-16 05:05:00,60.2,56.3,29.87,N/A,-327680,0.0,0.0,87,0.00,,,0.00,Wunderground PWS Mod,2013-05-16 09:05:00,
2013-05-16 05:10:00,60.2,56.3,29.87,N/A,-327680,0.0,0.0,87,0.00,,,0.00,Wunderground PWS Mod,2013-05-16 09:10:00,
2013-05-16 05:15:00,59.3,56.4,29.89,N/A,-327680,0.0,0.0,90,0.00,,,0.00,Wunderground PWS Mod,2013-05-16 09:15:00,
2013-05-16 05:20:00,59.3,56.4,29.89,N/A,-327680,0.0,0.0,90,0.00,,,0.00,Wunderground PWS Mod,2013-05-16 09:20:00,
2013-05-16 05:25:00,59.3,56.4,29.89,N/A,-327680,0.0,0.0,90,0.00,,,0.00,Wunderground PWS Mod,2013-05-16 09:25:00,
2013-05-16 05:30:00,59.3,56.4,29.89,N/A,-327680,0.0,0.0,90,0.00,,,0.00,Wunderground PWS Mod,2013-05-16 09:30:00,
2013-05-16 05:35:00,59.3,56.4,29.89,N/A,-327680,0.0,0.0,90,0.00,,,0.00,Wunderground PWS Mod,2013-05-16 09:35:00,
2013-05-16 05:40:00,59.3,56.4,29.89,N/A,-327680,0.0,0.0,90,0.00,,,0.00,Wunderground PWS Mod,2013-05-16 09:40:00,
2013-05-16 05:45:00,59.0,56.4,29.90,N/A,-327680,0.0,0.0,91,0.00,,,0.00,Wunderground PWS Mod,2013-05-16 09:45:00,
2013-05-16 05:50:00,59.0,56.4,29.90,N/A,-327680,0.0,0.0,91,0.00,,,0.00,Wunderground PWS Mod,2013-05-16 09:50:00,
2013-05-16 05:55:00,59.0,56.4,29.90,N/A,-327680,0.0,0.0,91,0.00,,,0.00,Wunderground PWS Mod,2013-05-16 09:55:00,
2013-05-16 06:00:00,59.0,56.4,29.90,N/A,-327680,0.0,0.0,91,0.00,,,0.00,Wunderground PWS Mod,2013-05-16 10:00:00,
2013-05-16 06:05:00,59.0,56.4,29.90,N/A,-327680,0.0,0.0,91,0.00,,,0.00,Wunderground PWS Mod,2013-05-16 10:05:00,
2013-05-16 06:10:00,59.0,56.4,29.90,N/A,-327680,0.0,0.0,91,0.00,,,0.00,Wunderground PWS Mod,2013-05-16 10:10:00,
2013-05-16 06:15:00,60.7,58.4,29.90,N/A,-327680,0.0,0.0,92,0.00,,,0.00,Wunderground PWS Mod,2013-05-16 10:15:00,
2013-05-16 06:20:00,60.7,58.4,29.90,N/A,-327680,0.0,0.0,92,0.00,,,0.00,Wunderground PWS Mod,2013-05-16 10:20:00,
2013-05-16 06:25:00,60.7,58.4,29.90,N/A,-327680,0.0,0.0,92,0.00,,,0.00,Wunderground PWS Mod,2013-05-16 10:25:00,
2013-05-16 06:30:00,60.7,58.4,29.90,N/A,-327680,0.0,0.0,92,0.00,,,0.00,Wunderground PWS Mod,2013-05-16 10:30:00,
2013-05-16 06:35:00,60.7,58.4,29.90,N/A,-327680,0.0,0.0,92,0.00,,,0.00,Wunderground PWS Mod,2013-05-16 10:35:00,
2013-05-16 06:40:00,60.7,58.4,29.90,N/A,-327680,0.0,0.0,92,0.00,,,0.00,Wunderground PWS Mod,2013-05-16 10:40:00,
2013-05-16 06:45:00,63.7,59.1,29.91,ESE,120,0.0,5.0,85,0.00,,,0.00,Wunderground PWS Mod,2013-05-16 10:45:00,
2013-05-16 06:50:00,63.7,59.1,29.91,ESE,120,0.0,5.0,85,0.00,,,0.00,Wunderground PWS Mod,2013-05-16 10:50:00,
2013-05-16 06:55:00,63.7,59.1,29.91,ESE,120,0.0,5.0,85,0.00,,,0.00,Wunderground PWS Mod,2013-05-16 10:55:00,
2013-05-16 07:00:00,63.7,59.1,29.91,ESE,120,0.0,5.0,85,0.00,,,0.00,Wunderground PWS Mod,2013-05-16 11:00:00,
2013-05-16 07:05:00,63.7,59.1,29.91,ESE,120,0.0,5.0,85,0.00,,,0.00,Wunderground PWS Mod,2013-05-16 11:05:00,
2013-05-16 07:10:00,63.7,59.1,29.91,ESE,120,0.0,5.0,85,0.00,,,0.00,Wunderground PWS Mod,2013-05-16 11:10:00,
2013-05-16 07:15:00,66.9,59.1,29.92,East,100,1.0,5.0,76,0.00,,,0.00,Wunderground PWS Mod,2013-05-16 11:15:00,
2013-05-16 07:20:00,66.9,59.1,29.92,East,100,1.0,5.0,76,0.00,,,0.00,Wunderground PWS Mod,2013-05-16 11:20:00,
2013-05-16 07:25:00,66.9,59.1,29.92,East,100,1.0,5.0,76,0.00,,,0.00,Wunderground PWS Mod,2013-05-16 11:25:00,
2013-05-16 07:30:00,66.9,59.1,29.92,East,100,1.0,5.0,76,0.00,,,0.00,Wunderground PWS Mod,2013-05-16 11:30:00,
2013-05-16 07:35:00,66.9,59.1,29.92,East,100,1.0,5.0,76,0.00,,,0.00,Wunderground PWS Mod,2013-05-16 11:35:00,
2013-05-16 07:40:00,66.9,59.1,29.92,East,100,1.0,5.0,76,0.00,,,0.00,Wunderground PWS Mod,2013-05-16 11:40:00,
2013-05-16 07:45:00,70.4,59.7,29.92,East,100,2.0,5.0,69,0.00,,,0.00,Wunderground PWS Mod,2013-05-16 11:45:00,
2013-05-16 07:50:00,70.4,59.7,29.92,East,100,2.0,5.0,69,0.00,,,0.00,Wunderground PWS Mod,2013-05-16 11:50:00,
2013-05-16 07:55:00,70.4,59.7,29.92,East,100,2.0,5.0,69,0.00,,,0.00,Wunderground PWS Mod,2013-05-16 11:55:00,
2013-05-16 08:00:00,70.4,59.7,29.92,East,100,2.0,5.0,69,0.00,,,0.00,Wunderground PWS Mod,2013-05-16 12:00:00,
2013-05-16 08:05:00,70.4,59.7,29.92,East,100,2.0,5.0,69,0.00,,,0.00,Wunderground PWS Mod,2013-05-16 12:05:00,
2013-05-16 08:10:00,70.4,59.7,29.92,East,100,2.0,5.0,69,0.00,,,0.00,Wunderground PWS Mod,2013-05-16 12:10:00,
2013-05-16 08:15:00,72.3,60.7,29.93,ESE,120,1.0,6.0,67,0.00,,,0.00,Wunderground PWS Mod,2013-05-16 12:15:00,
2013-05-16 08:20:00,72.3,60.7,29.93,ESE,120,1.0,6.0,67,0.00,,,0.00,Wunderground PWS Mod,2013-05-16 12:20:00,
2013-05-16 08:25:00,72.3,60.7,29.93,ESE,120,1.0,6.0,67,0.00,,,0.00,Wunderground PWS Mod,2013-05-16 12:25:00,
2013-05-16 08:30:00,72.3,60.7,29.93,ESE,120,1.0,6.0,67,0.00,,,0.00,Wunderground PWS Mod,2013-05-16 12:30:00,
2013-05-16 08:35:00,72.3,60.7,29.93,ESE,120,1.0,6.0,67,0.00,,,0.00,Wunderground PWS Mod,2013-05-16 12:35:00,
2013-05-16 08:40:00,72.3,60.7,29.93,ESE,120,1.0,6.0,67,0.00,,,0.00,Wunderground PWS Mod,2013-05-16 12:40:00,
2013-05-16 08:45:00,75.1,61.6,29.93,East,100,1.0,6.0,63,0.00,,,0.00,Wunderground PWS Mod,2013-05-16 12:45:00,
2013-05-16 08:50:00,75.1,61.6,29.93,East,100,1.0,6.0,63,0.00,,,0.00,Wunderground PWS Mod,2013-05-16 12:50:00,
2013-05-16 08:55:00,75.1,61.6,29.93,East,100,1.0,6.0,63,0.00,,,0.00,Wunderground PWS Mod,2013-05-16 12:55:00,
2013-05-16 09:00:00,75.1,61.6,29.93,East,100,1.0,6.0,63,0.00,,,0.00,Wunderground PWS Mod,2013-05-16 13:00:00,
2013-05-16 09:05:00,75.1,61.6,29.93,East,100,1.0,6.0,63,0.00,,,0.00,Wunderground PWS Mod,2013-05-16 13:05:00,
2013-05-16 09:10:00,75.1,61.6,29.93,East,100,1.0,6.0,63,0.00,,,0.00,Wunderground PWS Mod,2013-05-16 13:10:00,
2013-05-16 09:15:00,78.1,60.6,29.93,ESE,120,1.0,7.0,55,0.00,,,0.00,Wunderground PWS Mod,2013-05-16 13:15:00,
2013-05-16 09:20:00,78.1,60.6,29.93,ESE,120,1.0,7.0,55,0.00,,,0.00,Wunderground PWS Mod,2013-05-16 13:20:00,
2013-05-16 09:25:00,78.1,60.6,29.93,ESE,120,1.0,7.0,55,0.00,,,0.00,Wunderground PWS Mod,2013-05-16 13:25:00,
2013-05-16 09:30:00,78.1,60.6,29.93,ESE,120,1.0,7.0,55,0.00,,,0.00,Wunderground PWS Mod,2013-05-16 13:30:00,
2013-05-16 09:35:00,78.1,60.6,29.93,ESE,120,1.0,7.0,55,0.00,,,0.00,Wunderground PWS Mod,2013-05-16 13:35:00,
2013-05-16 09:40:00,78.1,60.6,29.93,ESE,120,1.0,7.0,55,0.00,,,0.00,Wunderground PWS Mod,2013-05-16 13:40:00,
2013-05-16 09:45:00,79.4,60.2,29.94,ESE,120,1.0,7.0,52,0.00,,,0.00,Wunderground PWS Mod,2013-05-16 13:45:00,
2013-05-16 09:50:00,79.4,60.2,29.94,ESE,120,1.0,7.0,52,0.00,,,0.00,Wunderground PWS Mod,2013-05-16 13:50:00,
2013-05-16 09:55:00,79.4,60.2,29.94,ESE,120,1.0,7.0,52,0.00,,,0.00,Wunderground PWS Mod,2013-05-16 13:55:00,
2013-05-16 10:00:00,79.4,60.2,29.94,ESE,120,1.0,7.0,52,0.00,,,0.00,Wunderground PWS Mod,2013-05-16 14:00:00,
2013-05-16 10:05:00,79.4,60.2,29.94,ESE,120,1.0,7.0,52,0.00,,,0.00,Wunderground PWS Mod,2013-05-16 14:05:00,
2013-05-16 10:10:00,79.4,60.2,29.94,ESE,120,1.0,7.0,52,0.00,,,0.00,Wunderground PWS Mod,2013-05-16 14:10:00,
2013-05-16 10:15:00,79.2,59.0,29.94,ESE,120,3.0,12.0,50,0.00,,,0.00,Wunderground PWS Mod,2013-05-16 14:15:00,
2013-05-16 10:20:00,79.2,59.0,29.94,ESE,120,3.0,12.0,50,0.00,,,0.00,Wunderground PWS Mod,2013-05-16 14:20:00,
2013-05-16 10:25:00,79.2,59.0,29.94,ESE,120,3.0,12.0,50,0.00,,,0.00,Wunderground PWS Mod,2013-05-16 14:25:00,
2013-05-16 10:30:00,79.2,59.0,29.94,ESE,120,3.0,12.0,50,0.00,,,0.00,Wunderground PWS Mod,2013-05-16 14:30:00,
2013-05-16 10:35:00,79.2,59.0,29.94,ESE,120,3.0,12.0,50,0.00,,,0.00,Wunderground PWS Mod,2013-05-16 14:35:00,
2013-05-16 10:40:00,79.2,59.0,29.94,ESE,120,3.0,12.0,50,0.00,,,0.00,Wunderground PWS Mod,2013-05-16 14:40:00,
2013-05-16 10:45:00,80.5,56.6,29.93,ESE,120,3.0,11.0,44,0.00,,,0.00,Wunderground PWS Mod,2013-05-16 14:45:00,
2013-05-16 10:50:00,80.5,56.6,29.93,ESE,120,3.0,11.0,44,0.00,,,0.00,Wunderground PWS Mod,2013-05-16 14:50:00,
2013-05-16 10:55:00,80.5,56.6,29.93,ESE,120,3.0,11.0,44,0.00,,,0.00,Wunderground PWS Mod,2013-05-16 14:55:00,
2013-05-16 11:00:00,80.5,56.6,29.93,ESE,120,3.0,11.0,44,0.00,,,0.00,Wunderground PWS Mod,2013-05-16 15:00:00,
2013-05-16 11:05:00,80.5,56.6,29.93,ESE,120,3.0,11.0,44,0.00,,,0.00,Wunderground PWS Mod,2013-05-16 15:05:00,
2013-05-16 11:10:00,80.5,56.6,29.93,ESE,120,3.0,11.0,44,0.00,,,0.00,Wunderground PWS Mod,2013-05-16 15:10:00,
2013-05-16 11:15:00,81.1,58.4,29.92,ESE,120,3.0,12.0,46,0.00,,,0.00,Wunderground PWS Mod,2013-05-16 15:15:00,
2013-05-16 11:20:00,81.1,58.4,29.92,ESE,120,3.0,12.0,46,0.00,,,0.00,Wunderground PWS Mod,2013-05-16 15:20:00,
2013-05-16 11:25:00,81.1,58.4,29.92,ESE,120,3.0,12.0,46,0.00,,,0.00,Wunderground PWS Mod,2013-05-16 15:25:00,
2013-05-16 11:30:00,81.1,58.4,29.92,ESE,120,3.0,12.0,46,0.00,,,0.00,Wunderground PWS Mod,2013-05-16 15:30:00,
2013-05-16 11:35:00,81.1,58.4,29.92,ESE,120,3.0,12.0,46,0.00,,,0.00,Wunderground PWS Mod,2013-05-16 15:35:00,
2013-05-16 11:40:00,81.1,58.4,29.92,ESE,120,3.0,12.0,46,0.00,,,0.00,Wunderground PWS Mod,2013-05-16 15:40:00,
2013-05-16 11:45:00,81.1,58.4,29.92,ESE,110,3.0,11.0,46,0.00,,,0.00,Wunderground PWS Mod,2013-05-16 15:45:00,
2013-05-16 11:50:00,81.1,58.4,29.92,ESE,110,3.0,11.0,46,0.00,,,0.00,Wunderground PWS Mod,2013-05-16 15:50:00,
2013-05-16 11:55:00,81.1,58.4,29.92,ESE,110,3.0,11.0,46,0.00,,,0.00,Wunderground PWS Mod,2013-05-16 15:55:00,
2013-05-16 12:00:00,81.1,58.4,29.92,ESE,110,3.0,11.0,46,0.00,,,0.00,Wunderground PWS Mod,2013-05-16 16:00:00,
2013-05-16 12:05:00,81.1,58.4,29.92,ESE,110,3.0,11.0,46,0.00,,,0.00,Wunderground PWS Mod,2013-05-16 16:05:00,
2013-05-16 12:10:00,81.1,58.4,29.92,ESE,110,3.0,11.0,46,0.00,,,0.00,Wunderground PWS Mod,2013-05-16 16:10:00,
2013-05-16 12:15:00,81.8,57.8,29.91,ESE,110,2.0,9.0,44,0.00,,,0.00,Wunderground PWS Mod,2013-05-16 16:15:00,
2013-05-16 12:20:00,81.8,57.8,29.91,ESE,110,2.0,9.0,44,0.00,,,0.00,Wunderground PWS Mod,2013-05-16 16:20:00,
2013-05-16 12:25:00,81.8,57.8,29.91,ESE,110,2.0,9.0,44,0.00,,,0.00,Wunderground PWS Mod,2013-05-16 16:25:00,
2013-05-16 12:30:00,81.8,57.8,29.91,ESE,110,2.0,9.0,44,0.00,,,0.00,Wunderground PWS Mod,2013-05-16 16:30:00,
2013-05-16 12:35:00,81.8,57.8,29.91,ESE,110,2.0,9.0,44,0.00,,,0.00,Wunderground PWS Mod,2013-05-16 16:35:00,
2013-05-16 12:40:00,81.8,57.8,29.91,ESE,110,2.0,9.0,44,0.00,,,0.00,Wunderground PWS Mod,2013-05-16 16:40:00,
2013-05-16 12:45:00,80.9,57.6,29.91,ESE,110,2.0,7.0,45,0.00,,,0.00,Wunderground PWS Mod,2013-05-16 16:45:00,
2013-05-16 12:50:00,80.9,57.6,29.91,ESE,110,2.0,7.0,45,0.00,,,0.00,Wunderground PWS Mod,2013-05-16 16:50:00,
2013-05-16 12:55:00,80.9,57.6,29.91,ESE,110,2.0,7.0,45,0.00,,,0.00,Wunderground PWS Mod,2013-05-16 16:55:00,
2013-05-16 13:00:00,80.9,57.6,29.91,ESE,110,2.0,7.0,45,0.00,,,0.00,Wunderground PWS Mod,2013-05-16 17:00:00,
2013-05-16 13:05:00,80.9,57.6,29.91,ESE,110,2.0,7.0,45,0.00,,,0.00,Wunderground PWS Mod,2013-05-16 17:05:00,
2013-05-16 13:10:00,80.9,57.6,29.91,ESE,110,2.0,7.0,45,0.00,,,0.00,Wunderground PWS Mod,2013-05-16 17:10:00,
2013-05-16 13:15:00,80.5,59.0,29.91,ESE,110,4.0,12.0,48,0.00,,,0.00,Wunderground PWS Mod,2013-05-16 17:15:00,
2013-05-16 13:20:00,80.5,59.0,29.91,ESE,110,4.0,12.0,48,0.00,,,0.00,Wunderground PWS Mod,2013-05-16 17:20:00,
2013-05-16 13:25:00,80.5,59.0,29.91,ESE,110,4.0,12.0,48,0.00,,,0.00,Wunderground PWS Mod,2013-05-16 17:25:00,
2013-05-16 13:30:00,80.5,59.0,29.91,ESE,110,4.0,12.0,48,0.00,,,0.00,Wunderground PWS Mod,2013-05-16 17:30:00,
2013-05-16 13:35:00,80.5,59.0,29.91,ESE,110,4.0,12.0,48,0.00,,,0.00,Wunderground PWS Mod,2013-05-16 17:35:00,
2013-05-16 13:40:00,80.5,59.0,29.91,ESE,110,4.0,12.0,48,0.00,,,0.00,Wunderground PWS Mod,2013-05-16 17:40:00,
2013-05-16 13:45:00,80.5,61.3,29.91,ESE,110,5.0,13.0,52,0.00,,,0.00,Wunderground PWS Mod,2013-05-16 17:45:00,
2013-05-16 13:50:00,80.5,61.3,29.91,ESE,110,5.0,13.0,52,0.00,,,0.00,Wunderground PWS Mod,2013-05-16 17:50:00,
2013-05-16 13:55:00,80.5,61.3,29.91,ESE,110,5.0,13.0,52,0.00,,,0.00,Wunderground PWS Mod,2013-05-16 17:55:00,
2013-05-16 14:00:00,80.5,61.3,29.91,ESE,110,5.0,13.0,52,0.00,,,0.00,Wunderground PWS Mod,2013-05-16 18:00:00,
2013-05-16 14:05:00,80.5,61.3,29.91,ESE,110,5.0,13.0,52,0.00,,,0.00,Wunderground PWS Mod,2013-05-16 18:05:00,
2013-05-16 14:10:00,80.5,61.3,29.91,ESE,110,5.0,13.0,52,0.00,,,0.00,Wunderground PWS Mod,2013-05-16 18:10:00,
2013-05-16 14:15:00,79.6,61.5,29.91,ESE,110,5.0,12.0,54,0.00,,,0.00,Wunderground PWS Mod,2013-05-16 18:15:00,
2013-05-16 14:20:00,79.6,61.5,29.91,ESE,110,5.0,12.0,54,0.00,,,0.00,Wunderground PWS Mod,2013-05-16 18:20:00,
2013-05-16 14:25:00,79.6,61.5,29.91,ESE,110,5.0,12.0,54,0.00,,,0.00,Wunderground PWS Mod,2013-05-16 18:25:00,
2013-05-16 14:30:00,79.6,61.5,29.91,ESE,110,5.0,12.0,54,0.00,,,0.00,Wunderground PWS Mod,2013-05-16 18:30:00,
2013-05-16 14:35:00,79.6,61.5,29.91,ESE,110,5.0,12.0,54,0.00,,,0.00,Wunderground PWS Mod,2013-05-16 18:35:00,
2013-05-16 14:40:00,79.6,61.5,29.91,ESE,110,5.0,12.0,54,0.00,,,0.00,Wunderground PWS Mod,2013-05-16 18:40:00,
2013-05-16 14:45:00,78.5,58.9,29.90,ESE,110,4.0,12.0,51,0.00,,,0.00,Wunderground PWS Mod,2013-05-16 18:45:00,
2013-05-16 14:50:00,78.5,58.9,29.90,ESE,110,4.0,12.0,51,0.00,,,0.00,Wunderground PWS Mod,2013-05-16 18:50:00,
2013-05-16 14:55:00,78.5,58.9,29.90,ESE,110,4.0,12.0,51,0.00,,,0.00,Wunderground PWS Mod,2013-05-16 18:55:00,
2013-05-16 15:00:00,78.5,58.9,29.90,ESE,110,4.0,12.0,51,0.00,,,0.00,Wunderground PWS Mod,2013-05-16 19:00:00,
2013-05-16 15:05:00,78.5,58.9,29.90,ESE,110,4.0,12.0,51,0.00,,,0.00,Wunderground PWS Mod,2013-05-16 19:05:00,
2013-05-16 15:10:00,78.5,58.9,29.90,ESE,110,4.0,12.0,51,0.00,,,0.00,Wunderground PWS Mod,2013-05-16 19:10:00,
2013-05-16 15:15:00,77.7,60.8,29.89,East,100,2.0,6.0,56,0.00,,,0.00,Wunderground PWS Mod,2013-05-16 19:15:00,
2013-05-16 15:20:00,77.7,60.8,29.89,East,100,2.0,6.0,56,0.00,,,0.00,Wunderground PWS Mod,2013-05-16 19:20:00,
2013-05-16 15:25:00,77.7,60.8,29.89,East,100,2.0,6.0,56,0.00,,,0.00,Wunderground PWS Mod,2013-05-16 19:25:00,
2013-05-16 15:30:00,77.7,60.8,29.89,East,100,2.0,6.0,56,0.00,,,0.00,Wunderground PWS Mod,2013-05-16 19:30:00,
2013-05-16 15:35:00,77.7,60.8,29.89,East,100,2.0,6.0,56,0.00,,,0.00,Wunderground PWS Mod,2013-05-16 19:35:00,
2013-05-16 15:40:00,77.7,60.8,29.89,East,100,2.0,6.0,56,0.00,,,0.00,Wunderground PWS Mod,2013-05-16 19:40:00,
2013-05-16 15:45:00,77.0,61.6,29.89,ESE,110,2.0,7.0,59,0.00,,,0.00,Wunderground PWS Mod,2013-05-16 19:45:00,
2013-05-16 15:50:00,77.0,61.6,29.89,ESE,110,2.0,7.0,59,0.00,,,0.00,Wunderground PWS Mod,2013-05-16 19:50:00,
2013-05-16 15:55:00,77.0,61.6,29.89,ESE,110,2.0,7.0,59,0.00,,,0.00,Wunderground PWS Mod,2013-05-16 19:55:00,
2013-05-16 16:00:00,77.0,61.6,29.89,ESE,110,2.0,7.0,59,0.00,,,0.00,Wunderground PWS Mod,2013-05-16 20:00:00,
2013-05-16 16:05:00,77.0,61.6,29.89,ESE,110,2.0,7.0,59,0.00,,,0.00,Wunderground PWS Mod,2013-05-16 20:05:00,
2013-05-16 16:10:00,77.0,61.6,29.89,ESE,110,2.0,7.0,59,0.00,,,0.00,Wunderground PWS Mod,2013-05-16 20:10:00,
2013-05-16 16:15:00,76.5,62.5,29.88,ESE,110,2.0,6.0,62,0.00,,,0.00,Wunderground PWS Mod,2013-05-16 20:15:00,
2013-05-16 16:20:00,76.5,62.5,29.88,ESE,110,2.0,6.0,62,0.00,,,0.00,Wunderground PWS Mod,2013-05-16 20:20:00,
2013-05-16 16:25:00,76.5,62.5,29.88,ESE,110,2.0,6.0,62,0.00,,,0.00,Wunderground PWS Mod,2013-05-16 20:25:00,
2013-05-16 16:30:00,76.5,62.5,29.88,ESE,110,2.0,6.0,62,0.00,,,0.00,Wunderground PWS Mod,2013-05-16 20:30:00,
2013-05-16 16:35:00,76.5,62.5,29.88,ESE,110,2.0,6.0,62,0.00,,,0.00,Wunderground PWS Mod,2013-05-16 20:35:00,
2013-05-16 16:40:00,76.5,62.5,29.88,ESE,110,2.0,6.0,62,0.00,,,0.00,Wunderground PWS Mod,2013-05-16 20:40:00,
2013-05-16 16:45:00,75.8,62.8,29.88,ESE,110,3.0,7.0,64,0.00,,,0.00,Wunderground PWS Mod,2013-05-16 20:45:00,
2013-05-16 16:50:00,75.8,62.8,29.88,ESE,110,3.0,7.0,64,0.00,,,0.00,Wunderground PWS Mod,2013-05-16 20:50:00,
2013-05-16 16:55:00,75.8,62.8,29.88,ESE,110,3.0,7.0,64,0.00,,,0.00,Wunderground PWS Mod,2013-05-16 20:55:00,
2013-05-16 17:00:00,75.8,62.8,29.88,ESE,110,3.0,7.0,64,0.00,,,0.00,Wunderground PWS Mod,2013-05-16 21:00:00,
2013-05-16 17:05:00,75.8,62.8,29.88,ESE,110,3.0,7.0,64,0.00,,,0.00,Wunderground PWS Mod,2013-05-16 21:05:00,
2013-05-16 17:10:00,75.8,62.8,29.88,ESE,110,3.0,7.0,64,0.00,,,0.00,Wunderground PWS Mod,2013-05-16 21:10:00,
2013-05-16 17:15:00,77.0,63.0,29.88,ESE,110,2.0,10.0,62,0.00,,,0.00,Wunderground PWS Mod,2013-05-16 21:15:00,
2013-05-16 17:20:00,77.0,63.0,29.88,ESE,110,2.0,10.0,62,0.00,,,0.00,Wunderground PWS Mod,2013-05-16 21:20:00,
2013-05-16 17:25:00,76.7,62.7,29.88,WSW,244,2.0,7.0,62,0.00,,,0.00,Wunderground PWS Mod,2013-05-16 21:25:00,
2013-05-16 17:30:00,77.0,63.0,29.88,ESE,110,2.0,10.0,62,0.00,,,0.00,Wunderground PWS Mod,2013-05-16 21:30:00,
2013-05-16 17:34:00,76.3,62.8,29.88,WSW,242,4.0,7.0,63,0.00,,,0.00,Wunderground PWS Mod,2013-05-16 21:34:00,
2013-05-16 17:35:00,77.0,63.0,29.88,ESE,110,2.0,10.0,62,0.00,,,0.00,Wunderground PWS Mod,2013-05-16 21:35:00,
2013-05-16 17:39:00,76.1,63.0,29.88,WSW,240,2.0,7.0,64,0.00,,,0.00,Wunderground PWS Mod,2013-05-16 21:39:00,
2013-05-16 17:40:00,77.0,63.0,29.88,ESE,110,2.0,10.0,62,0.00,,,0.00,Wunderground PWS Mod,2013-05-16 21:40:00,
2013-05-16 17:44:00,76.0,62.9,29.88,SSW,210,3.0,7.0,64,0.00,,,0.00,Wunderground PWS Mod,2013-05-16 21:44:00,
2013-05-16 17:45:00,77.4,61.0,29.89,ESE,110,4.0,13.0,57,0.00,,,0.00,Wunderground PWS Mod,2013-05-16 21:45:00,
2013-05-16 17:49:00,76.0,62.9,29.88,SW,228,1.0,7.0,64,0.00,,,0.00,Wunderground PWS Mod,2013-05-16 21:49:00,
2013-05-16 17:50:00,77.4,61.0,29.89,ESE,110,4.0,13.0,57,0.00,,,0.00,Wunderground PWS Mod,2013-05-16 21:50:00,
2013-05-16 17:54:00,75.8,62.8,29.88,SW,220,4.0,7.0,64,0.00,,,0.00,Wunderground PWS Mod,2013-05-16 21:54:00,
2013-05-16 17:55:00,77.4,61.0,29.89,ESE,110,4.0,13.0,57,0.00,,,0.00,Wunderground PWS Mod,2013-05-16 21:55:00,
2013-05-16 17:59:00,75.8,62.8,29.88,SW,234,5.0,7.0,64,0.00,,,0.00,Wunderground PWS Mod,2013-05-16 21:59:00,
2013-05-16 18:00:00,77.4,61.0,29.89,ESE,110,4.0,13.0,57,0.00,,,0.00,Wunderground PWS Mod,2013-05-16 22:00:00,
2013-05-16 18:05:00,77.4,61.0,29.89,ESE,110,4.0,13.0,57,0.00,,,0.00,Wunderground PWS Mod,2013-05-16 22:05:00,
2013-05-16 18:09:00,76.1,61.7,29.88,WSW,240,4.0,7.0,61,0.00,,,0.00,Wunderground PWS Mod,2013-05-16 22:09:00,
2013-05-16 18:10:00,77.4,61.0,29.89,ESE,110,4.0,13.0,57,0.00,,,0.00,Wunderground PWS Mod,2013-05-16 22:10:00,
2013-05-16 18:14:00,76.3,62.3,29.88,SSW,207,4.0,7.0,62,0.00,,,0.00,Wunderground PWS Mod,2013-05-16 22:14:00,
2013-05-16 18:15:00,76.8,62.3,29.89,ESE,110,3.0,9.0,61,0.00,,,0.00,Wunderground PWS Mod,2013-05-16 22:15:00,
2013-05-16 18:19:00,76.5,63.0,29.88,WSW,252,3.0,7.0,63,0.00,,,0.00,Wunderground PWS Mod,2013-05-16 22:19:00,
2013-05-16 18:20:00,76.8,62.3,29.89,ESE,110,3.0,9.0,61,0.00,,,0.00,Wunderground PWS Mod,2013-05-16 22:20:00,
2013-05-16 18:24:00,76.7,62.2,29.88,WSW,247,0.0,7.0,61,0.00,,,0.00,Wunderground PWS Mod,2013-05-16 22:24:00,
2013-05-16 18:25:00,76.8,62.3,29.89,ESE,110,3.0,9.0,61,0.00,,,0.00,Wunderground PWS Mod,2013-05-16 22:25:00,
2013-05-16 18:29:00,77.0,63.9,29.88,WSW,247,1.0,7.0,64,0.00,,,0.00,Wunderground PWS Mod,2013-05-16 22:29:00,
2013-05-16 18:30:00,76.8,62.3,29.89,ESE,110,3.0,9.0,61,0.00,,,0.00,Wunderground PWS Mod,2013-05-16 22:30:00,
2013-05-16 18:35:00,76.8,62.3,29.89,ESE,110,3.0,9.0,61,0.00,,,0.00,Wunderground PWS Mod,2013-05-16 22:35:00,
2013-05-16 18:39:00,78.1,61.1,29.88,SW,227,3.0,7.0,56,0.00,,,0.00,Wunderground PWS Mod,2013-05-16 22:39:00,
2013-05-16 18:40:00,76.8,62.3,29.89,ESE,110,3.0,9.0,61,0.00,,,0.00,Wunderground PWS Mod,2013-05-16 22:40:00,
2013-05-16 18:44:00,77.9,60.4,29.89,WSW,247,4.0,7.0,55,0.00,,,0.00,Wunderground PWS Mod,2013-05-16 22:44:00,
2013-05-16 18:45:00,75.1,63.8,29.89,ESE,110,1.0,5.0,68,0.00,,,0.00,Wunderground PWS Mod,2013-05-16 22:45:00,
2013-05-16 18:50:00,75.1,63.8,29.89,ESE,110,1.0,5.0,68,0.00,,,0.00,Wunderground PWS Mod,2013-05-16 22:50:00,
2013-05-16 18:54:00,77.6,60.7,29.89,West,263,5.0,7.0,56,0.00,,,0.00,Wunderground PWS Mod,2013-05-16 22:54:00,
2013-05-16 18:55:00,75.1,63.8,29.89,ESE,110,1.0,5.0,68,0.00,,,0.00,Wunderground PWS Mod,2013-05-16 22:55:00,
2013-05-16 18:59:00,77.4,60.5,29.89,West,264,0.0,7.0,56,0.00,,,0.00,Wunderground PWS Mod,2013-05-16 22:59:00,
2013-05-16 19:00:00,75.1,63.8,29.89,ESE,110,1.0,5.0,68,0.00,,,0.00,Wunderground PWS Mod,2013-05-16 23:00:00,
2013-05-16 19:04:00,77.2,60.3,29.89,WSW,254,3.0,7.0,56,0.00,,,0.00,Wunderground PWS Mod,2013-05-16 23:04:00,
2013-05-16 19:05:00,75.1,63.8,29.89,ESE,110,1.0,5.0,68,0.00,,,0.00,Wunderground PWS Mod,2013-05-16 23:05:00,
2013-05-16 19:10:00,75.1,63.8,29.89,ESE,110,1.0,5.0,68,0.00,,,0.00,Wunderground PWS Mod,2013-05-16 23:10:00,
2013-05-16 19:14:00,77.2,61.3,29.89,SSW,207,3.0,7.0,58,0.00,,,0.00,Wunderground PWS Mod,2013-05-16 23:14:00,
2013-05-16 19:15:00,73.0,63.0,29.90,SE,140,1.0,3.0,71,0.00,,,0.00,Wunderground PWS Mod,2013-05-16 23:15:00,
2013-05-16 19:19:00,77.0,62.0,29.89,SSW,213,2.0,7.0,60,0.00,,,0.00,Wunderground PWS Mod,2013-05-16 23:19:00,
2013-05-16 19:24:00,76.8,61.9,29.89,West,271,2.0,7.0,60,0.00,,,0.00,Wunderground PWS Mod,2013-05-16 23:24:00,
2013-05-16 19:25:00,73.0,63.0,29.90,SE,140,1.0,3.0,71,0.00,,,0.00,Wunderground PWS Mod,2013-05-16 23:25:00,
2013-05-16 19:29:00,76.8,62.3,29.89,WSW,252,2.0,7.0,61,0.00,,,0.00,Wunderground PWS Mod,2013-05-16 23:29:00,
2013-05-16 19:30:00,73.0,63.0,29.90,SE,140,1.0,3.0,71,0.00,,,0.00,Wunderground PWS Mod,2013-05-16 23:30:00,
2013-05-16 19:34:00,76.7,62.7,29.89,WSW,253,1.0,7.0,62,0.00,,,0.00,Wunderground PWS Mod,2013-05-16 23:34:00,
2013-05-16 19:35:00,73.0,63.0,29.90,SE,140,1.0,3.0,71,0.00,,,0.00,Wunderground PWS Mod,2013-05-16 23:35:00,
2013-05-16 19:40:00,73.0,63.0,29.90,SE,140,1.0,3.0,71,0.00,,,0.00,Wunderground PWS Mod,2013-05-16 23:40:00,
2013-05-16 19:44:00,76.1,63.5,29.89,WSW,253,2.0,7.0,65,0.00,,,0.00,Wunderground PWS Mod,2013-05-16 23:44:00,
2013-05-16 19:45:00,72.8,62.0,29.91,ESE,120,2.0,5.0,69,0.00,,,0.00,Wunderground PWS Mod,2013-05-16 23:45:00,
2013-05-16 19:49:00,75.8,63.6,29.89,WSW,253,0.0,7.0,66,0.00,,,0.00,Wunderground PWS Mod,2013-05-16 23:49:00,
2013-05-16 19:50:00,72.8,62.0,29.91,ESE,120,2.0,5.0,69,0.00,,,0.00,Wunderground PWS Mod,2013-05-16 23:50:00,
2013-05-16 19:54:00,75.4,63.7,29.89,WSW,253,0.0,7.0,67,0.00,,,0.00,Wunderground PWS Mod,2013-05-16 23:54:00,
2013-05-16 19:55:00,72.8,62.0,29.91,ESE,120,2.0,5.0,69,0.00,,,0.00,Wunderground PWS Mod,2013-05-16 23:55:00,
2013-05-16 19:59:00,75.1,63.8,29.89,WSW,253,0.0,7.0,68,0.00,,,0.00,Wunderground PWS Mod,2013-05-16 23:59:00,
2013-05-16 20:00:00,72.8,62.0,29.91,ESE,120,2.0,5.0,69,0.00,,,0.00,Wunderground PWS Mod,2013-05-17 00:00:00,
2013-05-16 20:04:00,74.6,63.8,29.89,WSW,253,0.0,7.0,69,0.00,,,0.00,Wunderground PWS Mod,2013-05-17 00:04:00,
2013-05-16 20:05:00,72.8,62.0,29.91,ESE,120,2.0,5.0,69,0.00,,,0.00,Wunderground PWS Mod,2013-05-17 00:05:00,
2013-05-16 20:09:00,74.2,63.8,29.89,NW,308,0.0,7.0,70,0.00,,,0.00,Wunderground PWS Mod,2013-05-17 00:09:00,
2013-05-16 20:10:00,72.8,62.0,29.91,ESE,120,2.0,5.0,69,0.00,,,0.00,Wunderground PWS Mod,2013-05-17 00:10:00,
2013-05-16 20:15:00,72.5,61.7,29.91,East,100,2.0,5.0,69,0.00,,,0.00,Wunderground PWS Mod,2013-05-17 00:15:00,
2013-05-16 20:19:00,73.5,63.5,29.90,NW,308,0.0,7.0,71,0.00,,,0.00,Wunderground PWS Mod,2013-05-17 00:19:00,
2013-05-16 20:20:00,72.5,61.7,29.91,East,100,2.0,5.0,69,0.00,,,0.00,Wunderground PWS Mod,2013-05-17 00:20:00,
2013-05-16 20:25:00,72.5,61.7,29.91,East,100,2.0,5.0,69,0.00,,,0.00,Wunderground PWS Mod,2013-05-17 00:25:00,
2013-05-16 20:29:00,73.0,63.0,29.90,NW,308,2.0,7.0,71,0.00,,,0.00,Wunderground PWS Mod,2013-05-17 00:29:00,
2013-05-16 20:30:00,72.5,61.7,29.91,East,100,2.0,5.0,69,0.00,,,0.00,Wunderground PWS Mod,2013-05-17 00:30:00,
2013-05-16 20:34:00,73.0,63.0,29.90,WNW,288,2.0,7.0,71,0.00,,,0.00,Wunderground PWS Mod,2013-05-17 00:34:00,
2013-05-16 20:35:00,72.5,61.7,29.91,East,100,2.0,5.0,69,0.00,,,0.00,Wunderground PWS Mod,2013-05-17 00:35:00,
2013-05-16 20:39:00,73.0,62.6,29.90,West,271,2.0,7.0,70,0.00,,,0.00,Wunderground PWS Mod,2013-05-17 00:39:00,
2013-05-16 20:40:00,72.5,61.7,29.91,East,100,2.0,5.0,69,0.00,,,0.00,Wunderground PWS Mod,2013-05-17 00:40:00,
2013-05-16 20:44:00,73.0,62.6,29.91,West,271,1.0,7.0,70,0.00,,,0.00,Wunderground PWS Mod,2013-05-17 00:44:00,
2013-05-16 20:45:00,71.6,62.1,29.92,East,100,2.0,5.0,72,0.00,,,0.00,Wunderground PWS Mod,2013-05-17 00:45:00,
2013-05-16 20:50:00,71.6,62.1,29.92,East,100,2.0,5.0,72,0.00,,,0.00,Wunderground PWS Mod,2013-05-17 00:50:00,
2013-05-16 20:54:00,73.0,62.6,29.91,West,263,3.0,7.0,70,0.00,,,0.00,Wunderground PWS Mod,2013-05-17 00:54:00,
2013-05-16 20:55:00,71.6,62.1,29.92,East,100,2.0,5.0,72,0.00,,,0.00,Wunderground PWS Mod,2013-05-17 00:55:00,
2013-05-16 20:59:00,73.0,62.2,29.91,West,261,2.0,7.0,69,0.00,,,0.00,Wunderground PWS Mod,2013-05-17 00:59:00,
2013-05-16 21:00:00,71.6,62.1,29.92,East,100,2.0,5.0,72,0.00,,,0.00,Wunderground PWS Mod,2013-05-17 01:00:00,
2013-05-16 21:04:00,72.8,62.0,29.91,WSW,248,2.0,7.0,69,0.00,,,0.00,Wunderground PWS Mod,2013-05-17 01:04:00,
2013-05-16 21:05:00,71.6,62.1,29.92,East,100,2.0,5.0,72,0.00,,,0.00,Wunderground PWS Mod,2013-05-17 01:05:00,
2013-05-16 21:09:00,72.8,62.0,29.91,WSW,246,1.0,7.0,69,0.00,,,0.00,Wunderground PWS Mod,2013-05-17 01:09:00,
2013-05-16 21:10:00,71.6,62.1,29.92,East,100,2.0,5.0,72,0.00,,,0.00,Wunderground PWS Mod,2013-05-17 01:10:00,
2013-05-16 21:14:00,72.8,62.0,29.91,SW,214,2.0,7.0,69,0.00,,,0.00,Wunderground PWS Mod,2013-05-17 01:14:00,
2013-05-16 21:15:00,70.8,61.7,29.93,East,100,1.0,5.0,73,0.00,,,0.00,Wunderground PWS Mod,2013-05-17 01:15:00,
2013-05-16 21:20:00,70.8,61.7,29.93,East,100,1.0,5.0,73,0.00,,,0.00,Wunderground PWS Mod,2013-05-17 01:20:00,
2013-05-16 21:24:00,72.7,61.9,29.91,SW,234,3.0,7.0,69,0.00,,,0.00,Wunderground PWS Mod,2013-05-17 01:24:00,
2013-05-16 21:25:00,70.8,61.7,29.93,East,100,1.0,5.0,73,0.00,,,0.00,Wunderground PWS Mod,2013-05-17 01:25:00,
2013-05-16 21:29:00,72.5,61.7,29.91,SW,234,2.0,7.0,69,0.00,,,0.00,Wunderground PWS Mod,2013-05-17 01:29:00,
2013-05-16 21:30:00,70.8,61.7,29.93,East,100,1.0,5.0,73,0.00,,,0.00,Wunderground PWS Mod,2013-05-17 01:30:00,
2013-05-16 21:34:00,72.3,61.6,29.91,SW,234,3.0,7.0,69,0.00,,,0.00,Wunderground PWS Mod,2013-05-17 01:34:00,
2013-05-16 21:35:00,70.8,61.7,29.93,East,100,1.0,5.0,73,0.00,,,0.00,Wunderground PWS Mod,2013-05-17 01:35:00,
2013-05-16 21:40:00,70.8,61.7,29.93,East,100,1.0,5.0,73,0.00,,,0.00,Wunderground PWS Mod,2013-05-17 01:40:00,
2013-05-16 21:44:00,71.8,61.5,29.92,SW,234,1.0,7.0,70,0.00,,,0.00,Wunderground PWS Mod,2013-05-17 01:44:00,
2013-05-16 21:45:00,70.9,62.2,29.93,East,100,1.0,5.0,74,0.00,,,0.00,Wunderground PWS Mod,2013-05-17 01:45:00,
2013-05-16 21:49:00,71.8,61.9,29.92,SW,234,0.0,7.0,71,0.00,,,0.00,Wunderground PWS Mod,2013-05-17 01:49:00,
2013-05-16 21:50:00,70.9,62.2,29.93,East,100,1.0,5.0,74,0.00,,,0.00,Wunderground PWS Mod,2013-05-17 01:50:00,
2013-05-16 21:55:00,70.9,62.2,29.93,East,100,1.0,5.0,74,0.00,,,0.00,Wunderground PWS Mod,2013-05-17 01:55:00,
2013-05-16 21:59:00,71.6,62.1,29.93,SW,233,2.0,7.0,72,0.00,,,0.00,Wunderground PWS Mod,2013-05-17 01:59:00,
2013-05-16 22:00:00,70.9,62.2,29.93,East,100,1.0,5.0,74,0.00,,,0.00,Wunderground PWS Mod,2013-05-17 02:00:00,
2013-05-16 22:04:00,71.3,62.2,29.93,SW,233,3.0,7.0,73,0.00,,,0.00,Wunderground PWS Mod,2013-05-17 02:04:00,
2013-05-16 22:05:00,70.9,62.2,29.93,East,100,1.0,5.0,74,0.00,,,0.00,Wunderground PWS Mod,2013-05-17 02:05:00,
2013-05-16 22:09:00,71.1,62.0,29.93,SW,234,2.0,7.0,73,0.00,,,0.00,Wunderground PWS Mod,2013-05-17 02:09:00,
2013-05-16 22:10:00,70.9,62.2,29.93,East,100,1.0,5.0,74,0.00,,,0.00,Wunderground PWS Mod,2013-05-17 02:10:00,
2013-05-16 22:14:00,70.9,61.8,29.93,SW,234,1.0,7.0,73,0.00,,,0.00,Wunderground PWS Mod,2013-05-17 02:14:00,
2013-05-16 22:15:00,69.9,61.6,29.93,East,100,0.0,4.0,75,0.00,,,0.00,Wunderground PWS Mod,2013-05-17 02:15:00,
2013-05-16 22:19:00,70.8,62.1,29.93,SW,234,0.0,7.0,74,0.00,,,0.00,Wunderground PWS Mod,2013-05-17 02:19:00,
2013-05-16 22:20:00,69.9,61.6,29.93,East,100,0.0,4.0,75,0.00,,,0.00,Wunderground PWS Mod,2013-05-17 02:20:00,
2013-05-16 22:25:00,69.9,61.6,29.93,East,100,0.0,4.0,75,0.00,,,0.00,Wunderground PWS Mod,2013-05-17 02:25:00,
2013-05-16 22:29:00,70.8,61.7,29.93,SW,234,2.0,7.0,73,0.00,,,0.00,Wunderground PWS Mod,2013-05-17 02:29:00,
2013-05-16 22:30:00,69.9,61.6,29.93,East,100,0.0,4.0,75,0.00,,,0.00,Wunderground PWS Mod,2013-05-17 02:30:00,
2013-05-16 22:35:00,69.9,61.6,29.93,East,100,0.0,4.0,75,0.00,,,0.00,Wunderground PWS Mod,2013-05-17 02:35:00,
2013-05-16 22:39:00,71.1,62.0,29.93,SW,234,0.0,7.0,73,0.00,,,0.00,Wunderground PWS Mod,2013-05-17 02:39:00,
2013-05-16 22:40:00,69.9,61.6,29.93,East,100,0.0,4.0,75,0.00,,,0.00,Wunderground PWS Mod,2013-05-17 02:40:00,
2013-05-16 22:44:00,71.1,62.0,29.93,SW,234,0.0,7.0,73,0.00,,,0.00,Wunderground PWS Mod,2013-05-17 02:44:00,
2013-05-16 22:45:00,67.4,61.4,29.93,N/A,-327680,0.0,0.0,81,0.00,,,0.00,Wunderground PWS Mod,2013-05-17 02:45:00,
2013-05-16 22:49:00,70.9,61.8,29.93,SW,234,2.0,7.0,73,0.00,,,0.00,Wunderground PWS Mod,2013-05-17 02:49:00,
2013-05-16 22:50:00,67.4,61.4,29.93,N/A,-327680,0.0,0.0,81,0.00,,,0.00,Wunderground PWS Mod,2013-05-17 02:50:00,
2013-05-16 22:54:00,70.9,61.8,29.93,SW,233,1.0,7.0,73,0.00,,,0.00,Wunderground PWS Mod,2013-05-17 02:54:00,
2013-05-16 22:55:00,67.4,61.4,29.93,N/A,-327680,0.0,0.0,81,0.00,,,0.00,Wunderground PWS Mod,2013-05-17 02:55:00,
2013-05-16 22:59:00,70.9,62.2,29.93,SW,233,1.0,7.0,74,0.00,,,0.00,Wunderground PWS Mod,2013-05-17 02:59:00,
2013-05-16 23:00:00,67.4,61.4,29.93,N/A,-327680,0.0,0.0,81,0.00,,,0.00,Wunderground PWS Mod,2013-05-17 03:00:00,
2013-05-16 23:05:00,67.4,61.4,29.93,N/A,-327680,0.0,0.0,81,0.00,,,0.00,Wunderground PWS Mod,2013-05-17 03:05:00,
2013-05-16 23:09:00,70.8,62.1,29.93,SW,233,0.0,7.0,74,0.00,,,0.00,Wunderground PWS Mod,2013-05-17 03:09:00,
2013-05-16 23:10:00,67.4,61.4,29.93,N/A,-327680,0.0,0.0,81,0.00,,,0.00,Wunderground PWS Mod,2013-05-17 03:10:00,
2013-05-16 23:14:00,70.6,61.9,29.93,SW,233,0.0,7.0,74,0.00,,,0.00,Wunderground PWS Mod,2013-05-17 03:14:00,
2013-05-16 23:15:00,65.6,61.0,29.93,N/A,-327680,0.0,0.0,85,0.00,,,0.00,Wunderground PWS Mod,2013-05-17 03:15:00,
2013-05-16 23:19:00,70.4,61.7,29.93,SW,233,0.0,7.0,74,0.00,,,0.00,Wunderground PWS Mod,2013-05-17 03:19:00,
2013-05-16 23:20:00,65.6,61.0,29.93,N/A,-327680,0.0,0.0,85,0.00,,,0.00,Wunderground PWS Mod,2013-05-17 03:20:00,
2013-05-16 23:24:00,70.3,62.0,29.93,SW,233,0.0,7.0,75,0.00,,,0.00,Wunderground PWS Mod,2013-05-17 03:24:00,
2013-05-16 23:25:00,65.6,61.0,29.93,N/A,-327680,0.0,0.0,85,0.00,,,0.00,Wunderground PWS Mod,2013-05-17 03:25:00,
2013-05-16 23:29:00,69.9,61.6,29.93,SW,233,0.0,7.0,75,0.00,,,0.00,Wunderground PWS Mod,2013-05-17 03:29:00,
2013-05-16 23:30:00,65.6,61.0,29.93,N/A,-327680,0.0,0.0,85,0.00,,,0.00,Wunderground PWS Mod,2013-05-17 03:30:00,
2013-05-16 23:35:00,65.6,61.0,29.93,N/A,-327680,0.0,0.0,85,0.00,,,0.00,Wunderground PWS Mod,2013-05-17 03:35:00,
2013-05-16 23:39:00,69.3,61.4,29.93,SW,233,0.0,7.0,76,0.00,,,0.00,Wunderground PWS Mod,2013-05-17 03:39:00,
2013-05-16 23:40:00,65.6,61.0,29.93,N/A,-327680,0.0,0.0,85,0.00,,,0.00,Wunderground PWS Mod,2013-05-17 03:40:00,
2013-05-16 23:44:00,68.8,60.9,29.93,SW,233,0.0,7.0,76,0.00,,,0.00,Wunderground PWS Mod,2013-05-17 03:44:00,
2013-05-16 23:45:00,64.5,60.9,29.93,N/A,-327680,0.0,0.0,88,0.00,,,0.00,Wunderground PWS Mod,2013-05-17 03:45:00,
2013-05-16 23:49:00,68.4,61.3,29.93,SW,233,0.0,7.0,78,0.00,,,0.00,Wunderground PWS Mod,2013-05-17 03:49:00,
2013-05-16 23:50:00,64.5,60.9,29.93,N/A,-327680,0.0,0.0,88,0.00,,,0.00,Wunderground PWS Mod,2013-05-17 03:50:00,
2013-05-16 23:54:00,67.9,61.1,29.93,SW,233,0.0,7.0,79,0.00,,,0.00,Wunderground PWS Mod,2013-05-17 03:54:00,
2013-05-16 23:55:00,64.5,60.9,29.93,N/A,-327680,0.0,0.0,88,0.00,,,0.00,Wunderground PWS Mod,2013-05-17 03:55:00,
2013-05-16 23:59:00,67.6,61.2,29.93,SW,233,0.0,7.0,80,0.00,,,0.00,Wunderground PWS Mod,2013-05-17 03:59:00,